User: anonymous   Login
Location: Unspecified
(0.0000°N, 0.0000°E)
Time: 01:50:47
(UTC+00:00)
Language:

STARLINK-34912 - Orbit

View from above orbital plane
View from above orbital plane
View from above satellite
View from above satellite

Ground track
Ground track

The orbit is defined by the following mean orbital elements,

1 65378U          26145.39582323 +.00000000 +00000-0 +49573-3 0 00006
2 65378  53.1589 171.5641 0000959  71.5146 288.5959 15.30207423    07
Epoch (UTC): 25 May 2026 09:29:59
Eccentricity: 0.0000959
inclination: 53.1589°
perigee height: 475 km
apogee height: 476 km
right ascension of ascending node: 171.5641°
argument of perigee: 71.5146°
revolutions per day: 15.30207423
mean anomaly at epoch: 288.5959°

The dashed part of the orbit path shows where the satellite is in the earth's shadow,  

DLR